Location: Newark
(42.8481°N, 0.4872°E)
Time: 08:12:41
(UTC+00:00)

Transit 2A Rocket - Pass Details

Date: 27 October 2020
Orbit: 588 x 914 km, 66.7° (Epoch: 29 November)

Event Time Altitude Azimuth Distance (km) Brightness Sun altitude
Rises 18:28:28 0° 329° (NNW) 3,292 8.7 -17.4°
Reaches altitude 10° 18:31:00 10° 331° (NNW) 2,306 7.8 -17.8°
Maximum altitude 18:36:15 81° 58° (ENE) 725 4.7 -18.8°
Enters shadow 18:39:16 23° 144° (SE) 1,431 6.1 -19.4°
Drops below altitude 10° 18:40:59 10° 146° (SSE) 2,081 - -19.7°
Sets 18:43:10 0° 148° (SSE) 2,946 - -20.1°
